Hourly Data Report for September 17, 2018

SHEARWATER RCS
NOVA SCOTIA
Current Station Operator: ECCC - MSC

44°37'47.000" N
63°30'48.000" W
24.00 m
8205092
71264
AAW

Download Data

Hourly Data (September 2018)
Hourly Data Report for September 17, 2018
TIME Temp Definition
°C
Dew Point Definition
°C
Rel Hum Definition
%
Wind Dir Definition
10's deg

Wind Spd Definition
km/h
Visibility Definition
km
Stn Press Definition
kPa
Hmdx Definition


Wind Chill Definition


Weather Definition


00:00 19.0 15.2 79 5 5   102.02     LegendNANA
01:00 18.3 15.2 82 8 5   101.98     LegendNANA
02:00 17.1 14.2 83 12 5   101.93     LegendNANA
03:00 16.6 14.3 86 11 2   101.88     LegendNANA
04:00 15.9 14.0 89   0   101.81     LegendNANA
05:00 16.0 14.6 91 4 2   101.79     LegendNANA
06:00 17.6 15.7 88 20 4   101.78     LegendNANA
07:00 18.4 17.0 92 20 8   101.75     LegendNANA
08:00 18.7 17.5 93 24 10   101.73     LegendNANA
09:00 20.2 17.7 86 24 8   101.69 26   LegendNANA
10:00 22.6 17.7 74 25 9   101.64 28   LegendNANA
11:00 24.2 17.7 67 24 12   101.58 30   LegendNANA
12:00 24.6 17.8 66 22 12   101.50 30   LegendNANA
13:00 25.7 18.1 63 23 14   101.42 32   LegendNANA
14:00 24.9 17.7 64 21 16   101.36 31   LegendNANA
15:00 24.5 17.8 66 21 16   101.30 30   LegendNANA
16:00 23.3 17.2 68 21 17   101.23 29   LegendNANA
17:00 22.7 17.0 70 21 17   101.18 28   LegendNANA
18:00 20.9 16.8 78 22 18   101.15 26   LegendNANA
19:00 20.1 16.2 78 22 18   101.11 25   LegendNANA
20:00 20.1 15.5 75 23 19   101.09     LegendNANA
21:00 19.7 16.0 79 23 19   101.09     LegendNANA
22:00 19.2 15.9 82 24 13   101.05     LegendNANA
23:00 18.7 16.4 87 23 15   101.00     LegendNANA

Notes on Data Quality.

Legend

  • E = Estimated
  • M = Missing
  • NA = Not Available*
  • [empty] = Indicates an unobserved value
Date modified: